Hourly Weather Bolshie Peksely

Today, 1 August, Sunday

Time Temperature Precipitation Wind Pressure Humidity
00:00 +18°C° 0 mm 2 mps 745 mmHg 74%
01:00 +18°C° 0 mm 2 mps 745 mmHg 73%
02:00 +17°C° 0 mm 2 mps 745 mmHg 73%
03:00 +17°C° 0 mm 2 mps 746 mmHg 73%
04:00 +17°C° 0 mm 2 mps 746 mmHg 72%
05:00 +18°C° 0 mm 2 mps 746 mmHg 72%
06:00 +19°C° 0 mm 1 mps 746 mmHg 71%
07:00 +21°C° 0 mm 1 mps 747 mmHg 65%
08:00 +23°C° 0 mm 2 mps 747 mmHg 59%
09:00 +24°C° 0 mm 2 mps 747 mmHg 53%
10:00 +26°C° 0 mm 2 mps 747 mmHg 49%
11:00 +27°C° 0 mm 2 mps 747 mmHg 45%
12:00 +28°C° 0 mm 2 mps 747 mmHg 41%
13:00 +29°C° 0 mm 2 mps 747 mmHg 39%
14:00 +29°C° 0 mm 2 mps 747 mmHg 38%
15:00 +30°C° 0 mm 2 mps 747 mmHg 37%
16:00 +29°C° 0 mm 2 mps 747 mmHg 41%
17:00 +29°C° 0 mm 2 mps 746 mmHg 45%
18:00 +29°C° 0 mm 1 mps 746 mmHg 49%
19:00 +27°C° 0 mm 2 mps 746 mmHg 52%
20:00 +25°C° 0 mm 2 mps 746 mmHg 54%
21:00 +22°C° 0 mm 3 mps 746 mmHg 57%
22:00 +22°C° 0 mm 3 mps 746 mmHg 56%
23:00 +22°C° 0 mm 3 mps 746 mmHg 55%

Tomorrow, 2 August, Monday

Time Temperature Precipitation Wind Pressure Humidity
00:00 +22°C° 0 mm 3 mps 746 mmHg 54%
01:00 +21°C° 0 mm 3 mps 746 mmHg 56%
02:00 +21°C° 0 mm 3 mps 746 mmHg 58%
03:00 +20°C° 0 mm 2 mps 746 mmHg 60%
04:00 +21°C° 0 mm 2 mps 746 mmHg 62%
05:00 +21°C° 0 mm 2 mps 746 mmHg 64%
06:00 +21°C° 0 mm 2 mps 746 mmHg 66%
07:00 +24°C° 0 mm 2 mps 746 mmHg 60%
08:00 +26°C° 0 mm 3 mps 746 mmHg 53%
09:00 +29°C° 0 mm 3 mps 746 mmHg 47%
10:00 +30°C° 0 mm 4 mps 746 mmHg 42%
11:00 +33°C° 0 mm 4 mps 746 mmHg 38%
12:00 +35°C° 0 mm 5 mps 745 mmHg 33%
13:00 +34°C° 0 mm 4 mps 745 mmHg 34%
14:00 +34°C° 0 mm 4 mps 744 mmHg 35%
15:00 +34°C° 0 mm 3 mps 744 mmHg 36%
16:00 +31°C° 0.1 mm 3 mps 743 mmHg 44%
17:00 +29°C° 0.1 mm 3 mps 743 mmHg 53%
18:00 +27°C° 0.1 mm 3 mps 743 mmHg 61%
19:00 +26°C° 0 mm 3 mps 743 mmHg 63%
20:00 +25°C° 0 mm 3 mps 743 mmHg 65%
21:00 +24°C° 0 mm 3 mps 742 mmHg 67%
22:00 +24°C° 0 mm 3 mps 742 mmHg 66%
23:00 +24°C° 0 mm 3 mps 742 mmHg 65%

Day after tomorrow, 3 August, Tuesday

Time Temperature Precipitation Wind Pressure Humidity
00:00 +24°C° 0 mm 3 mps 741 mmHg 63%
01:00 +22°C° 0 mm 3 mps 742 mmHg 67%
02:00 +22°C° 0 mm 3 mps 742 mmHg 71%
03:00 +21°C° 0 mm 3 mps 742 mmHg 75%
04:00 +21°C° 0 mm 3 mps 742 mmHg 77%
05:00 +21°C° 0 mm 4 mps 742 mmHg 78%
06:00 +21°C° 0 mm 4 mps 743 mmHg 79%
07:00 +22°C° 0 mm 4 mps 743 mmHg 75%
08:00 +23°C° 0 mm 5 mps 743 mmHg 70%
09:00 +25°C° 0 mm 5 mps 743 mmHg 65%
10:00 +26°C° 0 mm 5 mps 743 mmHg 61%
11:00 +28°C° 0 mm 5 mps 743 mmHg 56%
12:00 +29°C° 0 mm 5 mps 743 mmHg 52%
13:00 +29°C° 0 mm 5 mps 743 mmHg 52%
14:00 +28°C° 0 mm 5 mps 743 mmHg 53%
15:00 +28°C° 0 mm 5 mps 743 mmHg 53%
16:00 +27°C° 0 mm 5 mps 743 mmHg 55%
17:00 +27°C° 0 mm 5 mps 743 mmHg 56%
18:00 +26°C° 0 mm 5 mps 743 mmHg 58%
19:00 +23°C° 0 mm 4 mps 744 mmHg 65%
20:00 +21°C° 0 mm 3 mps 744 mmHg 72%
21:00 +19°C° 0 mm 3 mps 745 mmHg 79%
22:00 +18°C° 0 mm 2 mps 745 mmHg 84%
23:00 +17°C° 0 mm 2 mps 746 mmHg 88%

4 August, Wednesday

Time Temperature Precipitation Wind Pressure Humidity
00:00 +16°C° 0 mm 2 mps 746 mmHg 93%
01:00 +16°C° 0 mm 2 mps 746 mmHg 93%
02:00 +15°C° 0 mm 2 mps 747 mmHg 93%
03:00 +15°C° 0 mm 1 mps 747 mmHg 94%
04:00 +15°C° 0 mm 2 mps 747 mmHg 92%
05:00 +16°C° 0 mm 2 mps 747 mmHg 90%
06:00 +16°C° 0 mm 2 mps 748 mmHg 88%
07:00 +18°C° 0 mm 2 mps 748 mmHg 79%
08:00 +20°C° 0 mm 3 mps 748 mmHg 69%
09:00 +22°C° 0 mm 3 mps 748 mmHg 60%
10:00 +24°C° 0 mm 3 mps 748 mmHg 53%
11:00 +25°C° 0 mm 3 mps 748 mmHg 46%
12:00 +26°C° 0 mm 4 mps 748 mmHg 39%
13:00 +26°C° 0 mm 4 mps 749 mmHg 40%
14:00 +26°C° 0 mm 4 mps 749 mmHg 40%
15:00 +26°C° 0 mm 4 mps 749 mmHg 40%
16:00 +25°C° 0 mm 3 mps 749 mmHg 43%
17:00 +25°C° 0 mm 3 mps 749 mmHg 45%
18:00 +24°C° 0 mm 2 mps 749 mmHg 48%
19:00 +23°C° 0 mm 2 mps 749 mmHg 51%
20:00 +21°C° 0 mm 2 mps 750 mmHg 54%
21:00 +20°C° 0 mm 2 mps 750 mmHg 57%
22:00 +20°C° 0 mm 1 mps 750 mmHg 60%
23:00 +20°C° 0 mm 1 mps 750 mmHg 63%

5 August, Thursday

Time Temperature Precipitation Wind Pressure Humidity
00:00 +19°C° 0 mm 1 mps 750 mmHg 65%
01:00 +19°C° 0 mm 1 mps 750 mmHg 66%
02:00 +19°C° 0 mm 1 mps 750 mmHg 67%
03:00 +17°C° 0 mm 0 mps 751 mmHg 67%
04:00 +17°C° 0 mm 0 mps 751 mmHg 70%
05:00 +19°C° 0 mm 1 mps 751 mmHg 72%
06:00 +18°C° 0 mm 1 mps 751 mmHg 75%
07:00 +20°C° 0 mm 1 mps 751 mmHg 69%
08:00 +22°C° 0 mm 1 mps 751 mmHg 63%
09:00 +23°C° 0 mm 1 mps 751 mmHg 56%
10:00 +25°C° 0 mm 1 mps 751 mmHg 51%
11:00 +26°C° 0 mm 1 mps 751 mmHg 46%
12:00 +27°C° 0 mm 1 mps 751 mmHg 41%
13:00 +27°C° 0 mm 1 mps 751 mmHg 42%
14:00 +27°C° 0 mm 1 mps 751 mmHg 42%
15:00 +27°C° 0 mm 1 mps 750 mmHg 43%
16:00 +26°C° 0 mm 1 mps 750 mmHg 46%
17:00 +26°C° 0 mm 1 mps 750 mmHg 49%
18:00 +25°C° 0 mm 1 mps 750 mmHg 52%
19:00 +24°C° 0 mm 1 mps 750 mmHg 56%
20:00 +21°C° 0 mm 2 mps 750 mmHg 60%
21:00 +20°C° 0 mm 2 mps 750 mmHg 64%
22:00 +19°C° 0 mm 2 mps 750 mmHg 64%
23:00 +19°C° 0 mm 2 mps 750 mmHg 64%

6 August, Friday

Time Temperature Precipitation Wind Pressure Humidity
00:00 +19°C° 0 mm 2 mps 749 mmHg 63%
01:00 +19°C° 0 mm 2 mps 749 mmHg 63%
02:00 +19°C° 0 mm 2 mps 749 mmHg 63%
03:00 +18°C° 0 mm 2 mps 749 mmHg 63%
04:00 +18°C° 0 mm 2 mps 749 mmHg 62%
05:00 +18°C° 0 mm 2 mps 749 mmHg 62%
06:00 +18°C° 0 mm 2 mps 750 mmHg 61%
07:00 +19°C° 0 mm 2 mps 750 mmHg 58%
08:00 +20°C° 0 mm 2 mps 750 mmHg 56%
09:00 +22°C° 0 mm 1 mps 750 mmHg 54%
10:00 +24°C° 0 mm 2 mps 750 mmHg 49%
11:00 +25°C° 0 mm 2 mps 749 mmHg 44%
12:00 +27°C° 0 mm 2 mps 749 mmHg 40%
13:00 +29°C° 0 mm 3 mps 749 mmHg 35%
14:00 +30°C° 0 mm 3 mps 748 mmHg 31%
15:00 +33°C° 0 mm 4 mps 748 mmHg 27%
16:00 +32°C° 0 mm 4 mps 748 mmHg 30%
17:00 +30°C° 0 mm 4 mps 748 mmHg 33%
18:00 +29°C° 0 mm 4 mps 747 mmHg 36%
19:00 +28°C° 0 mm 4 mps 747 mmHg 39%
20:00 +26°C° 0 mm 4 mps 747 mmHg 42%
21:00 +23°C° 0 mm 4 mps 747 mmHg 46%
22:00 +23°C° 0 mm 5 mps 747 mmHg 47%
23:00 +22°C° 0 mm 5 mps 747 mmHg 47%
Show more

We Need Your Consent

Meteoprog and our Service Providers may store and access personal data such as cookies, device identifiers or other similar technologies on your device and process such data to personalise content and ads, as well as provide social media features and to analyse the traffic.

  • Store and/or access information on your device

    Cookies, device identifiers or other information can be stored or accessed on your device for the purposes indicated above.

  • Personalised ads and content, ad and content measurement, audience insights, and products development

    Ads and content can be personalised based on a profile. More data can be added to better personalise ads and content. Ad and content performance can be measured. Insights about the audience who saw the ads and content can be derived. Such data can be used to develop or improve user’s experience, systems and software.

By clicking ‘I Agree’ you will allow the use of indicated cookies, device identifiers, web beacons or other similar technologies. Your settings can be changed in the browser on your device.

For certain purposes, legitimate interests may be relied on, rather than consent. You can read more about this in our Privacy and Cookie Policy.